This is the latest recevied weather packets stored in our database for station/object SQ7RAF-15. If no packets are shown the sender has not sent any weather packets the latest 1 day(s).
| Time | Temp. | Humidity | Pressure | Rain* | Wind** | Luminosity | Snow |
|---|---|---|---|---|---|---|---|
| 1777971641 | 26.11° C | 36% | 1008.6 hPa | 0 mm | 1.34 m/s, 180° | 651 W/m² | - |
| 1777971320 | 26.11° C | 36% | 1008.6 hPa | 0 mm | 0.89 m/s, 308° | 621 W/m² | - |
| 1777971017 | 26.11° C | 35% | 1008.7 hPa | 0 mm | 0.89 m/s, 271° | 620 W/m² | - |
| 1777970729 | 26.11° C | 36% | 1008.7 hPa | 0 mm | 0.89 m/s, 318° | 673 W/m² | - |
| 1777970424 | 25.56° C | 37% | 1008.9 hPa | 0 mm | 0.89 m/s, 252° | 641 W/m² | - |
| 1777970120 | 25° C | 37% | 1008.8 hPa | 0 mm | 0.89 m/s, 244° | 595 W/m² | - |
| 1777969832 | 25° C | 38% | 1009 hPa | 0 mm | 0.89 m/s, 243° | 553 W/m² | - |
| 1777969544 | 24.44° C | 39% | 1009.1 hPa | 0 mm | 0.89 m/s, 270° | 500 W/m² | - |
| 1777969224 | 25° C | 38% | 1009.1 hPa | 0 mm | 0.89 m/s, 305° | 446 W/m² | - |
| 1777968936 | 25° C | 39% | 1009.1 hPa | 0 mm | 0.89 m/s, 314° | 517 W/m² | - |
| 1777968617 | 24.44° C | 39% | 1009.2 hPa | 0 mm | 0.89 m/s, 180° | 556 W/m² | - |
| 1777968345 | 23.89° C | 39% | 1009.2 hPa | 0 mm | 1.79 m/s, 171° | 551 W/m² | - |
| 1777968024 | 24.44° C | 40% | 1009.3 hPa | 0 mm | 1.34 m/s, 188° | 529 W/m² | - |
| 1777967737 | 23.89° C | 41% | 1009.3 hPa | 0 mm | 0.89 m/s, 318° | 510 W/m² | - |
| 1777967417 | 23.89° C | 41% | 1009.2 hPa | 0 mm | 0.89 m/s, 4° | 488 W/m² | - |
| 1777967129 | 23.33° C | 42% | 1009.3 hPa | 0 mm | 0.89 m/s, 299° | 470 W/m² | - |
| 1777966873 | 23.33° C | 42% | 1009.3 hPa | 0 mm | 1.34 m/s, 252° | 472 W/m² | - |
| 1777966536 | 23.33° C | 42% | 1009.4 hPa | 0 mm | 0.89 m/s, 207° | 461 W/m² | - |
| 1777966217 | 22.78° C | 43% | 1009.4 hPa | 0 mm | 0.45 m/s, 243° | 424 W/m² | - |
| 1777965929 | 22.78° C | 43% | 1009.5 hPa | 0 mm | 1.34 m/s, 192° | 428 W/m² | - |
| 1777965641 | 22.22° C | 43% | 1009.4 hPa | 0 mm | 0.89 m/s, 251° | 408 W/m² | - |
| 1777965320 | 21.67° C | 44% | 1009.5 hPa | 0 mm | 0.45 m/s, 313° | 403 W/m² | - |
| 1777965033 | 21.67° C | 44% | 1009.5 hPa | 0 mm | 0.89 m/s, 259° | 415 W/m² | - |
| 1777964744 | 21.67° C | 44% | 1009.5 hPa | 0 mm | 1.79 m/s, 170° | 406 W/m² | - |
| 1777964425 | 21.11° C | 44% | 1009.7 hPa | 0 mm | 0.89 m/s, 252° | 393 W/m² | - |
* Rain latest hour (hover to see other rain measurements)
** Current wind speed in m/s (hover to see current wind gust speed)